Location: Beddau
(51.5575°N, 3.3561°W)
Time: 12:22:45
(UTC+00:00)

FALCON 9 DEB - Pass Details

Date: 03 March 2021
Orbit: 370 x 390 km, 53.0° (Epoch: 16 April)

Event Time Altitude Azimuth Distance (km) Brightness Sun altitude
Rises 19:59:34 0° 283° (WNW) 2,303 8.5 -19.6°
Reaches altitude 10° 20:01:38 10° 284° (WNW) 1,445 7.0 -19.9°
Enters shadow 20:04:39 71° 324° (NW) 424 3.1 -20.4°
